Location: Peterborough
(44.3091°N, 78.3197°W)
Time: 20:17:07
(UTC-04:00)

A-11 Canister half - Pass Details

Date: 27 March 2023
Orbit: 1526 x 1682 km, 47.3° (Epoch: 06 June)

Event Time Altitude Azimuth Distance (km) Brightness Sun altitude
Rises 21:58:58 0° 291° (WNW) 4,873 12.9 -25.2°
Reaches altitude 10° 22:02:09 10° 291° (WNW) 3,865 12.1 -25.7°
Maximum altitude 22:11:56 76° 208° (SSW) 1,635 9.0 -27.1°
Enters shadow 22:14:57 49° 137° (SE) 1,948 9.0 -27.6°
